EW4821 Weather Reports


time (UTC)temp
C
wind
direction
speed
KPH
gust
KPH
rain 1hr
cm
rain 24hr
cm
rain mn
cm
humidity
%
barometer
mb
20260507050006 11 329 14.5 20.9 0.10 0.66 0.10 90 1011.4
20260507040021 12 300 8.0 16.1 0.03 0.56 0.00 89 1010.6
20260507034515 12 305 9.7 17.7 0.08 0.56 0.56 90 1010.6
20260507033012 12 286 12.9 19.3 0.08 0.56 0.56 90 1010.8
20260507031517 13 302 9.7 17.7 0.08 0.56 0.56 89 1010.5
20260507030020 13 312 12.9 20.9 0.05 0.53 0.53 89 1010.5
20260507024514 13 295 11.3 17.7 0.00 0.48 0.48 91 1010.7
20260507023019 14 305 8.0 16.1 0.10 0.48 0.48 91 1010.1
20260507021507 14 310 8.0 16.1 0.13 0.48 0.48 92 1010.3
20260507020006 14 330 6.4 12.9 0.13 0.48 0.48 92 1010.0
20260507014519 15 313 9.7 20.9 0.13 0.48 0.48 91 1010.2
20260507013017 16 283 11.3 17.7 0.03 0.38 0.38 91 1010.4
20260507011514 16 268 6.4 16.1 0.00 0.36 0.36 91 1010.5
20260507010018 16 272 9.7 20.9 0.00 0.36 0.36 90 1010.2
20260507004512 17 267 17.7 29.0 0.00 0.36 0.36 89 1010.1
20260507003014 17 229 1.6 3.2 0.00 0.36 0.36 90 1009.5
20260507001510 17 207 0.0 4.8 0.00 0.36 0.36 90 1009.4
20260507000012 18 204 1.6 4.8 0.00 0.36 0.36 89 1009.0
20260506234510 18 169 1.6 6.4 0.00 0.36 0.36 89 1008.9
20260506233020 18 211 3.2 8.0 0.00 0.36 0.36 88 1008.9
20260506231520 18 206 3.2 8.0 0.00 0.36 0.36 88 1008.8
20260506230020 18 193 3.2 9.7 0.00 0.36 0.36 87 1008.9
20260506224512 18 196 1.6 8.0 0.00 0.36 0.36 88 1008.8
20260506223009 18 159 4.8 8.0 0.00 0.36 0.36 87 1008.9
20260506221507 18 194 0.0 3.2 0.00 0.36 0.36 88 1008.8
20260506220025 18 197 3.2 11.3 0.00 0.36 0.36 87 1008.9
20260506214536 18 192 4.8 14.5 0.00 0.36 0.36 87 1008.7
20260506213016 18 196 4.8 12.9 0.00 0.36 0.36 87 1008.3
20260506211517 18 166 4.8 9.7 0.00 0.36 0.36 86 1008.1
20260506210019 18 163 4.8 14.5 0.00 0.36 0.36 86 1008.0
20260506204515 18 189 6.4 14.5 0.00 0.36 0.36 87 1007.9
20260506203019 18 146 3.2 12.9 0.00 0.36 0.36 88 1008.0
20260506201514 18 168 4.8 19.3 0.00 0.36 0.36 87 1007.9
20260506200008 18 159 8.0 16.1 0.00 0.36 0.36 88 1007.9
20260506194507 18 190 8.0 14.5 0.00 0.36 0.36 90 1007.8
20260506193010 17 160 4.8 16.1 0.00 0.36 0.36 91 1008.0
20260506191512 17 165 6.4 16.1 0.00 0.36 0.36 91 1008.3
20260506190014 17 163 6.4 14.5 0.00 0.36 0.36 91 1008.3
20260506183013 16 183 8.0 16.1 0.00 0.36 0.36 93 1008.6
20260506181515 16 168 8.0 17.7 0.00 0.36 0.36 94 1008.6
20260506180012 16 177 8.0 14.5 0.00 0.36 0.36 94 1008.8
20260506173016 15 179 8.0 22.5 0.00 0.36 0.36 95 1008.7
20260506170011 15 193 11.3 22.5 0.00 0.36 0.36 95 1008.7
20260506164516 15 161 11.3 22.5 0.03 0.36 0.36 95 1008.7
20260506163018 15 123 9.7 20.9 0.03 0.36 0.36 95 1008.9
20260506161515 15 155 11.3 24.1 0.08 0.36 0.36 95 1009.0
20260506160012 15 183 12.9 22.5 0.10 0.36 0.36 95 1008.9
20260506154512 15 142 9.7 16.1 0.13 0.33 0.33 95 1008.8
20260506153020 15 169 9.7 17.7 0.15 0.33 0.33 95 1008.8
20260506151516 15 174 8.0 17.7 0.13 0.28 0.28 95 1009.5
20260506150017 15 159 11.3 20.9 0.10 0.25 0.25 94 1009.5
20260506143019 15 161 8.0 17.7 0.10 0.18 0.18 94 1009.5
20260506141514 15 157 9.7 16.1 0.10 0.15 0.15 93 1009.2
20260506140017 15 159 6.4 12.9 0.13 0.15 0.15 93 1009.5
20260506134521 15 176 6.4 11.3 0.13 0.13 0.13 92 1009.7
20260506133020 15 165 6.4 11.3 0.08 0.08 0.08 91 1009.8
20260506131521 15 153 6.4 11.3 0.05 0.05 0.05 89 1009.8
20260506130020 16 167 4.8 12.9 0.03 0.03 0.03 87 1009.5
20260506124522 16 138 8.0 14.5 0.00 0.00 0.00 86 1009.7
20260506123018 16 171 6.4 16.1 0.00 0.00 0.00 84 1009.8
20260506121515 16 155 9.7 16.1 0.00 0.00 0.00 81 1010.0
20260506120020 17 176 9.7 17.7 0.00 0.00 0.00 81 1010.0
20260506114527 16 163 11.3 17.7 0.00 0.00 0.00 81 1009.8
20260506113035 17 142 8.0 20.9 0.00 0.00 0.00 81 1009.7
20260506111521 17 169 11.3 17.7 0.00 0.00 0.00 79 1009.5
20260506110008 17 201 12.9 20.9 0.00 0.00 0.00 79 1009.4
20260506104518 17 163 8.0 17.7 0.00 0.00 0.00 79 1009.2
20260506103009 17 148 9.7 19.3 0.00 0.00 0.00 78 1009.0
20260506101511 17 161 9.7 19.3 0.00 0.00 0.00 78 1009.0
20260506100012 17 165 6.4 17.7 0.00 0.00 0.00 77 1009.0
20260506094508 17 179 9.7 17.7 0.00 0.00 0.00 76 1009.0
20260506093013 17 172 8.0 16.1 0.00 0.00 0.00 75 1009.0
20260506091508 17 157 9.7 22.5 0.00 0.00 0.00 74 1009.1
20260506090008 17 154 11.3 17.7 0.00 0.00 0.00 73 1009.3
20260506084518 17 150 11.3 19.3 0.00 0.00 0.00 72 1009.3
20260506081510 18 161 9.7 19.3 0.00 0.00 0.00 70 1009.3
20260506073015 18 169 8.0 16.1 0.00 0.00 0.00 67 1009.5
20260506071511 19 164 6.4 12.9 0.00 0.00 0.00 66 1009.6
20260506061520 20 161 12.9 20.9 0.00 0.00 0.00 62 1010.1